FW5810 Weather Reports


time (UTC)temp
F
wind
direction
speed
knots
gust
knots
rain 1hr
in
rain 24hr
in
rain mn
in
humidity
%
barometer
mb
20260509103338 51 219 0.9 2.6 0.00 0.53 0.53 96 1008.3
20260509102837 51 191 0.9 0.9 0.07 0.53 0.53 96 1008.2
20260509102334 51 227 1.7 4.3 0.07 0.53 0.53 96 1008.6
20260509101829 51 157 1.7 2.6 0.00 0.52 0.52 96 1008.6
20260509101326 51 194 0.9 2.6 0.00 0.52 0.52 96 1008.5
20260509100824 51 212 0.9 3.5 0.00 0.52 0.52 96 1008.6
20260509100321 51 235 1.7 2.6 0.00 0.52 0.52 96 1008.6
20260509095817 51 143 0.9 2.6 0.05 0.52 0.52 96 1008.6
20260509095315 51 165 1.7 2.6 0.05 0.52 0.52 96 1008.6
20260509094812 51 160 1.7 2.6 0.00 0.51 0.51 96 1008.7
20260509094308 51 176 0.9 2.6 0.00 0.51 0.51 96 1008.8
20260509093806 51 232 0.9 2.6 0.00 0.51 0.51 96 1008.8
20260509093303 51 188 0.9 2.6 0.00 0.51 0.51 96 1008.8
20260509092802 51 217 1.7 3.5 0.07 0.51 0.51 96 1008.9
20260509092259 50 186 1.7 0.9 0.07 0.51 0.51 96 1008.7
20260509091757 50 227 1.7 3.5 0.00 0.50 0.50 96 1009.0
20260509091253 50 146 0.9 3.5 0.00 0.50 0.50 96 1009.0
20260509090751 50 126 0.9 3.5 0.00 0.50 0.50 97 1009.0
20260509090248 50 231 1.7 3.5 0.05 0.50 0.50 97 1008.9
20260509085745 50 143 0.0 3.5 0.19 0.50 0.50 97 1009.0
20260509085243 50 233 1.7 2.6 0.26 0.49 0.49 97 1009.1
20260509084739 50 8 0.9 0.9 0.17 0.47 0.47 97 1009.3
20260509084236 50 296 0.0 2.6 0.05 0.45 0.45 97 1009.2
20260509083734 50 106 0.9 2.6 0.00 0.44 0.44 96 1009.2
20260509083230 50 239 0.9 0.9 0.07 0.44 0.44 96 1009.3
20260509082727 50 217 0.0 0.0 0.07 0.44 0.44 96 1009.2
20260509082224 50 217 0.9 0.9 0.12 0.43 0.43 96 1009.1
20260509081720 50 230 0.0 0.9 0.12 0.42 0.42 96 1009.3
20260509081218 50 230 0.0 0.9 0.12 0.41 0.41 96 1009.4
20260509080716 50 253 1.7 2.6 0.19 0.40 0.40 96 1009.5
20260509080213 50 154 0.9 2.6 0.24 0.39 0.39 96 1009.3
20260509075711 50 196 0.9 3.5 0.19 0.37 0.37 96 1009.3
20260509075209 50 175 1.7 3.5 0.05 0.34 0.34 96 1009.2
20260509074705 50 138 2.6 4.3 0.12 0.33 0.33 96 1009.3
20260509074203 50 216 3.5 4.3 0.19 0.33 0.33 96 1009.3
20260509073659 50 188 2.6 3.5 0.19 0.31 0.31 96 1009.3
20260509073155 50 202 2.6 6.1 0.12 0.30 0.30 96 1009.5
20260509072652 50 252 1.7 3.5 0.05 0.28 0.28 96 1009.5
20260509072149 50 217 1.7 4.3 0.05 0.28 0.28 96 1009.5
20260509071645 50 218 2.6 4.3 0.00 0.27 0.27 96 1009.4
20260509071143 50 201 1.7 7.0 0.07 0.27 0.27 96 1009.4
20260509070640 50 119 2.6 3.5 0.19 0.27 0.27 96 1009.6
20260509070136 50 225 2.6 3.5 0.19 0.26 0.26 96 1009.4
20260509065632 50 165 6.1 6.1 0.12 0.24 0.24 96 1009.4
20260509065128 50 155 3.5 4.3 0.12 0.23 0.23 96 1009.5
20260509064626 50 166 1.7 2.6 0.07 0.22 0.22 96 1009.7
20260509064124 50 147 1.7 3.5 0.12 0.22 0.22 96 1009.6
20260509063620 50 155 0.9 4.3 0.05 0.21 0.21 96 1009.6
20260509063117 50 155 1.7 2.6 0.07 0.20 0.20 96 1009.6
20260509062614 50 159 0.9 2.6 0.12 0.20 0.20 96 1009.8
20260509062111 50 215 0.9 0.9 0.05 0.19 0.19 96 1010.0
20260509061608 50 238 1.7 2.6 0.00 0.18 0.18 96 1010.0
20260509061105 50 144 0.9 2.6 0.00 0.18 0.18 96 1009.9
20260509060603 50 150 0.0 0.9 0.07 0.18 0.18 96 1010.1
20260509060058 50 151 0.0 2.6 0.07 0.18 0.18 96 1010.1
20260509055554 50 148 0.9 0.9 0.05 0.17 0.17 96 1010.3
20260509055050 50 137 0.9 0.9 0.12 0.17 0.17 96 1010.3
20260509054547 50 138 0.9 2.6 0.12 0.16 0.16 96 1010.3
20260509054045 50 145 0.9 2.6 0.05 0.15 0.15 96 1010.3
20260509053543 50 155 0.9 2.6 0.19 0.14 0.14 96 1010.5
20260509053040 50 128 1.7 3.5 0.12 0.13 0.13 96 1010.5
20260509052538 50 134 0.9 2.6 0.07 0.11 0.11 96 1010.6
20260509052035 50 124 1.7 2.6 0.12 0.10 0.10 96 1010.5
20260509051533 50 141 2.6 3.5 0.12 0.09 0.09 96 1010.5
20260509051030 50 128 0.9 0.9 0.05 0.08 0.08 96 1010.6
20260509050527 50 127 0.0 0.9 0.05 0.08 0.08 96 1010.5
20260509050023 50 134 1.7 2.6 0.07 0.07 0.07 96 1010.5
20260509045520 50 145 1.7 3.5 0.07 0.07 0.07 96 1010.8
20260509045017 50 130 1.7 2.6 0.12 0.06 0.06 96 1010.8
20260509044515 50 128 2.6 2.6 0.17 0.06 0.06 96 1010.8
20260509044013 50 126 0.9 0.9 0.17 0.04 0.04 96 1010.8
20260509043508 50 126 0.0 0.0 0.12 0.03 0.03 96 1010.9
20260509043004 50 126 0.9 0.9 0.00 0.01 0.01 96 1011.0
20260509042500 50 126 0.0 0.9 0.07 0.01 0.01 96 1011.0
20260509041956 50 125 0.9 2.6 0.00 0.00 0.00 96 1011.1
20260509041453 50 126 2.6 2.6 0.00 0.00 0.00 96 1011.0
20260509040951 50 120 0.9 0.9 0.00 0.00 0.00 96 1011.1
20260509040449 50 120 0.0 0.9 0.00 0.00 0.00 96 1011.2
20260509035946 50 122 0.0 0.9 0.00 0.29 0.29 96 1011.1
20260509035442 50 122 0.0 0.0 0.05 0.29 0.29 96 1011.4
20260509034939 50 122 0.9 0.9 0.05 0.29 0.29 95 1011.4
20260509034437 50 123 0.9 0.9 0.00 0.28 0.28 95 1011.4
20260509033934 50 123 0.0 0.0 0.00 0.28 0.28 95 1011.4
20260509033431 50 123 0.0 2.6 0.07 0.28 0.28 95 1011.5
20260509032927 50 131 0.9 0.9 0.07 0.28 0.28 95 1011.5
20260509032425 50 135 0.0 0.9 0.07 0.27 0.27 95 1011.6
20260509031923 50 128 0.9 2.6 0.07 0.27 0.27 95 1011.7
20260509031420 50 209 0.9 2.6 0.05 0.26 0.26 95 1011.9
20260509030917 50 250 0.9 2.6 0.12 0.26 0.26 95 1011.9
20260509030415 50 174 2.6 2.6 0.07 0.25 0.25 95 1011.6
20260509025912 50 146 2.6 3.5 0.05 0.24 0.24 95 1011.8
20260509025408 50 136 0.9 2.6 0.05 0.24 0.24 95 1011.7
20260509024903 50 208 0.9 0.9 0.00 0.23 0.23 95 1011.8
20260509024359 50 222 0.0 3.5 0.07 0.23 0.23 95 1012.0
20260509023856 50 128 1.7 3.5 0.07 0.23 0.23 95 1011.9
20260509023354 50 152 0.9 4.3 0.00 0.22 0.22 95 1012.0
20260509022850 50 153 3.5 4.3 0.00 0.22 0.22 95 1012.0
20260509022347 50 135 0.9 0.9 0.05 0.22 0.22 95 1012.0
20260509021844 50 140 0.9 3.5 0.05 0.22 0.22 95 1011.9
20260509021341 50 135 0.0 2.6 0.07 0.21 0.21 96 1011.9
20260509020839 50 160 3.5 3.5 0.07 0.21 0.21 96 1012.0
20260509020337 50 126 0.0 0.9 0.05 0.20 0.20 96 1012.0
20260509015834 50 148 0.9 2.6 0.07 0.19 0.19 96 1012.0
20260509015332 50 130 0.9 2.6 0.07 0.19 0.19 95 1012.1
20260509014829 50 123 0.9 2.6 0.05 0.18 0.18 95 1012.3
20260509014326 50 138 1.7 3.5 0.12 0.18 0.18 95 1012.1
20260509013823 50 133 0.9 0.9 0.14 0.17 0.17 95 1012.1
20260509013319 50 138 0.9 0.9 0.12 0.16 0.16 95 1012.1
20260509012815 50 138 0.9 0.9 0.12 0.15 0.15 95 1012.1
20260509012312 50 138 0.0 0.0 0.12 0.14 0.14 95 1012.2
20260509011809 50 138 0.0 0.0 0.05 0.13 0.13 95 1011.8
20260509011306 50 138 0.0 0.9 0.00 0.12 0.12 95 1011.9
20260509010804 50 138 0.9 2.6 0.07 0.12 0.12 95 1011.9
20260509010300 50 211 0.9 0.9 0.07 0.12 0.12 95 1012.0
20260509005758 50 212 0.0 0.0 0.05 0.11 0.11 94 1011.9
20260509005256 50 212 0.9 0.0 0.05 0.11 0.11 94 1011.7
20260509004755 50 212 0.9 0.9 0.07 0.10 0.10 94 1011.6
20260509004252 50 212 0.0 0.9 0.07 0.10 0.10 94 1011.9
20260509003751 50 230 2.6 2.6 0.05 0.09 0.09 94 1011.9
20260509003248 50 242 0.9 0.9 0.07 0.08 0.08 94 1011.9
20260509002745 50 242 0.9 0.9 0.07 0.08 0.08 94 1011.6
20260509002242 50 256 0.0 2.6 0.12 0.08 0.08 94 1012.0
20260509001740 50 323 0.9 0.9 0.12 0.07 0.07 94 1012.0
20260509001236 50 13 0.9 0.9 0.05 0.05 0.05 93 1011.6
20260509000734 50 13 0.9 0.9 0.05 0.05 0.05 93 1011.6
20260509000231 50 13 0.9 0.9 0.00 0.04 0.04 93 1011.6
20260508235728 50 13 0.9 0.9 0.00 0.04 0.04 93 1011.6
20260508235224 51 13 0.0 0.0 0.00 0.04 0.04 92 1011.1
20260508234721 51 13 0.0 0.0 0.00 0.04 0.04 92 1011.4
20260508234217 51 14 0.0 0.0 0.00 0.04 0.04 91 1011.0
20260508233712 51 14 0.0 0.0 0.00 0.04 0.04 90 1011.1
20260508233209 51 13 0.0 0.0 0.00 0.04 0.04 90 1011.0
20260508232706 51 13 0.0 0.0 0.00 0.04 0.04 89 1011.3
20260508232202 51 13 0.0 0.9 0.00 0.04 0.04 91 1011.1
20260508231701 51 13 0.0 0.0 0.00 0.04 0.04 92 1011.2
20260508231157 51 13 0.0 0.9 0.00 0.04 0.04 92 1011.1
20260508230654 51 13 0.0 0.0 0.00 0.04 0.04 92 1011.1
20260508230150 51 13 0.0 0.0 0.00 0.04 0.04 92 1011.4
20260508225649 51 13 0.0 0.0 0.00 0.04 0.04 92 1011.3
20260508225144 51 13 0.0 0.0 0.07 0.04 0.04 92 1011.2
20260508224643 51 12 0.9 0.9 0.07 0.04 0.04 92 1011.4
20260508224140 51 13 0.9 0.9 0.00 0.03 0.03 91 1011.3
20260508223637 51 10 1.7 2.6 0.00 0.03 0.03 91 1011.4
20260508223134 51 43 1.7 2.6 0.00 0.03 0.03 90 1011.1
20260508222632 51 70 0.9 0.9 0.00 0.03 0.03 90 1011.0
20260508222129 51 116 0.0 0.0 0.00 0.03 0.03 90 1011.0
20260508221625 51 115 0.9 0.9 0.00 0.03 0.03 91 1010.9
20260508221121 50 112 0.9 0.9 0.00 0.03 0.03 92 1010.6
20260508220618 50 131 2.6 3.5 0.00 0.03 0.03 91 1010.9
20260508220114 50 270 1.7 0.9 0.00 0.03 0.03 91 1011.1
20260508215611 50 271 0.0 0.9 0.00 0.03 0.03 91 1011.1
20260508215107 50 272 0.9 0.9 0.00 0.03 0.03 90 1011.3
20260508214604 50 272 0.9 0.9 0.00 0.03 0.03 89 1011.3
20260508214100 50 273 0.9 0.9 0.00 0.03 0.03 90 1011.4
20260508180046 54 250 3.5 4.3 0.07 0.03 0.03 74 1013.3
20260508175543 54 250 3.5 4.3 0.07 0.03 0.03 74 1013.3
20260508175040 54 250 3.5 4.3 0.07 0.03 0.03 74 1013.3
20260508174538 54 252 5.2 8.7 0.07 0.03 0.03 73 1013.4
20260508174035 53 250 7.0 9.6 0.00 0.02 0.02 74 1013.2
20260508173532 54 254 3.5 7.0 0.05 0.02 0.02 74 1013.0
20260508173027 54 229 7.0 7.0 0.05 0.02 0.02 72 1013.2
20260508172525 54 276 2.6 6.1 0.00 0.01 0.01 71 1013.1
20260508172021 55 111 7.0 12.2 0.07 0.01 0.01 69 1013.2
20260508171518 57 264 4.3 12.2 0.07 0.01 0.01 63 1013.0
20260508171014 57 257 4.3 6.1 0.00 0.00 0.00 63 1012.9
20260508170512 58 263 6.1 8.7 0.00 0.00 0.00 59 1012.9
20260508170009 58 264 6.1 8.7 0.00 0.00 0.00 58 1013.0
20260508165506 59 276 1.7 2.6 0.00 0.00 0.00 57 1012.8
20260508165003 59 253 4.3 10.4 0.00 0.00 0.00 55 1012.8
20260508164459 59 263 4.3 10.4 0.00 0.00 0.00 54 1012.9
20260508163956 58 263 2.6 9.6 0.00 0.00 0.00 58 1013.1
20260508163454 59 249 2.6 9.6 0.00 0.00 0.00 55 1013.0
20260508162949 59 243 4.3 12.2 0.00 0.00 0.00 57 1012.9
20260508162447 58 220 2.6 7.0 0.00 0.00 0.00 57 1012.9
20260508161944 58 220 3.5 4.3 0.00 0.00 0.00 57 1013.1
20260508161441 58 289 3.5 10.4 0.00 0.00 0.00 58 1013.1
20260508160938 58 243 4.3 10.4 0.00 0.00 0.00 56 1013.2
20260508160438 58 239 11.3 16.5 0.00 0.00 0.00 55 1013.2
20260508155933 58 289 8.7 12.2 0.00 0.00 0.00 57 1013.2
20260508155430 58 318 2.6 7.0 0.00 0.00 0.00 58 1013.4
20260508154927 58 326 3.5 4.3 0.00 0.00 0.00 56 1013.3
20260508154424 57 250 8.7 10.4 0.00 0.00 0.00 57 1013.3
20260508153921 57 249 4.3 7.0 0.00 0.00 0.00 56 1013.3
20260508153418 57 261 2.6 4.3 0.00 0.00 0.00 56 1013.5
20260508152914 57 157 7.8 10.4 0.00 0.00 0.00 57 1013.4
20260508152411 57 308 3.5 3.5 0.00 0.00 0.00 57 1013.4
20260508151907 57 241 4.3 8.7 0.00 0.00 0.00 56 1013.3
20260508151404 56 287 0.9 4.3 0.00 0.00 0.00 59 1013.8
20260508150900 56 252 3.5 8.7 0.00 0.00 0.00 58 1013.4
20260508150357 57 295 8.7 9.6 0.00 0.00 0.00 55 1013.5
20260508145853 57 264 5.2 6.1 0.00 0.00 0.00 56 1013.5
20260508145350 57 282 4.3 9.6 0.00 0.00 0.00 57 1013.3
20260508144846 57 296 2.6 4.3 0.00 0.00 0.00 57 1013.7
20260508144345 58 268 6.1 7.0 0.00 0.00 0.00 55 1013.4
20260508143842 56 275 0.9 3.5 0.00 0.00 0.00 58 1013.4
20260508143339 56 350 1.7 2.6 0.00 0.00 0.00 57 1013.7
20260508142835 55 245 5.2 8.7 0.00 0.00 0.00 58 1013.8
20260508142332 56 248 3.5 8.7 0.00 0.00 0.00 56 1013.5
20260508141829 55 265 2.6 4.3 0.00 0.00 0.00 57 1013.5
20260508141326 55 256 6.1 6.1 0.00 0.00 0.00 57 1013.5
20260508140823 55 244 4.3 12.2 0.00 0.00 0.00 57 1013.4
20260508140320 56 315 2.6 4.3 0.00 0.00 0.00 56 1013.7
20260508135816 55 283 5.2 10.4 0.00 0.00 0.00 57 1013.8
20260508135312 55 10 4.3 7.0 0.00 0.00 0.00 55 1013.7
20260508134808 54 208 1.7 7.0 0.00 0.00 0.00 58 1013.7
20260508134305 53 298 3.5 6.1 0.00 0.00 0.00 57 1013.9
20260508133802 53 274 3.5 7.0 0.00 0.00 0.00 59 1013.9
20260508133300 53 300 4.3 7.0 0.00 0.00 0.00 58 1014.0
20260508132757 53 200 2.6 8.7 0.00 0.00 0.00 61 1013.9
20260508132254 52 297 1.7 8.7 0.00 0.00 0.00 59 1013.9
20260508131750 52 205 7.8 9.6 0.00 0.00 0.00 59 1014.1
20260508131246 52 279 7.0 13.0 0.00 0.00 0.00 57 1013.9
20260508130743 52 222 2.6 7.0 0.00 0.00 0.00 59 1013.8
20260508130241 53 290 8.7 10.4 0.00 0.00 0.00 58 1013.8
20260508125736 52 204 2.6 7.0 0.00 0.00 0.00 61 1013.8
20260508125232 51 276 1.7 3.5 0.00 0.00 0.00 63 1014.0
20260508124731 51 258 1.7 6.1 0.00 0.00 0.00 64 1013.9
20260508124227 51 202 0.9 3.5 0.00 0.00 0.00 65 1014.0
20260508123726 52 276 2.6 4.3 0.00 0.00 0.00 64 1014.0
20260508123224 52 208 5.2 7.0 0.00 0.00 0.00 62 1013.8
20260508122719 52 249 4.3 10.4 0.00 0.00 0.00 63 1013.8
20260508122216 51 279 4.3 7.0 0.00 0.00 0.00 64 1013.4
20260508121714 51 293 7.0 8.7 0.00 0.00 0.00 65 1013.4
20260508121213 51 219 3.5 4.3 0.00 0.00 0.00 68 1013.4
20260508120709 50 221 3.5 4.3 0.00 0.00 0.00 68 1013.5
20260508120208 50 259 1.7 3.5 0.00 0.00 0.00 70 1013.5
20260508115705 50 233 0.9 6.1 0.00 0.00 0.00 69 1013.4
20260508115202 49 122 0.9 2.6 0.00 0.00 0.00 71 1013.3
20260508114658 49 260 0.9 3.5 0.00 0.00 0.00 72 1013.4
20260508114155 48 233 2.6 4.3 0.00 0.00 0.00 73 1013.2
20260508113652 48 231 0.9 2.6 0.00 0.00 0.00 77 1013.4
20260508113150 48 244 0.9 2.6 0.00 0.00 0.00 75 1013.2
20260508112646 47 254 0.9 0.9 0.00 0.00 0.00 76 1013.2
20260508112143 47 269 0.0 0.9 0.00 0.00 0.00 76 1013.2
20260508111639 47 268 4.3 6.1 0.00 0.00 0.00 75 1013.4
20260508111137 47 107 0.9 0.9 0.00 0.00 0.00 77 1013.3
20260508110635 47 162 0.9 2.6 0.00 0.00 0.00 76 1013.3
20260508110131 48 265 4.3 10.4 0.00 0.00 0.00 73 1013.8
20260508105626 48 233 4.3 9.6 0.00 0.00 0.00 73 1013.8
20260508105123 48 273 3.5 4.3 0.00 0.00 0.00 70 1013.7
20260508104621 48 308 0.9 2.6 0.00 0.00 0.00 70 1013.3
20260508104117 47 269 2.6 3.5 0.00 0.00 0.00 70 1013.2